Home > Time Zones > World Clock > Weather > Iran > Gorgan > Past weeks

Flag for Iran Weather past 2 weeks in Gorgan, Iran

Now
86 °F

Scattered clouds.


Feels Like: 88 °F
Forecast: 73 / 96 °F
Wind: 7 mph from Southwest

Location: Gorgan Airport

Current Time: Jul 31, 2014 at 12:35:38 PM

Latest Report: Jul 31, 2014 at 11:30 AM


Visibility: N/A

Pressure: 29.92 "Hg

Humidity: 52%

Dew point: 66 °F

Location of GorganLocation

Historic Weather in Gorgan — Graph

°F

Gorgan temperature yesterday

Maximum temperature yesterday: 90 °F (at 3:30 PM)
Minimum temperature yesterday: 73 °F (at 5:30 AM)
Average temperature yesterday: 80 °F

Past Weeks' High & Low Weather Summary

 TemperatureHumidityPressure
High99 °F (Jul 18, 4:30 PM)94% (Jul 17, 12:30 AM)30.07 "Hg (Jul 17, 12:30 AM)
Low70 °F (Jul 23, 4:30 AM)32% (Jul 23, 1:30 PM)29.53 "Hg (Jul 19, 2:30 AM)
Average83 °F68%29.76 "Hg
* Reported Jul 16 11:30 AM — Jul 31 11:30 AM, Gorgan, Weather by CustomWeather, © 2014

Note: Actual official high and low records may vary slightly from our data, if they occured in-between our weather recording intervals... More about our weather records

Advertising

Gorgan weather history for previous 24 hours

 ConditionsComfort  
Time TempWeatherWind HumidityBarometerVisibility
11:30 AM
Jul 31
86 °FScattered clouds.7 mph52%29.92 "HgN/A
10:30 AM82 °FScattered clouds.7 mph55%29.92 "HgN/A
9:30 AM81 °FWarm.7 mph79%29.92 "HgN/A
8:30 AMN/AScattered clouds.7 mphN/A29.92 "HgN/A
7:30 AM73 °FScattered clouds.5 mph83%29.92 "HgN/A
6:30 AM72 °FPassing clouds.No wind88%29.92 "HgN/A
5:30 AM70 °FPassing clouds.No wind94%29.92 "HgN/A
4:30 AM70 °FClear.No wind94%29.89 "Hg10 mi
3:30 AM70 °FClear.No wind94%29.89 "Hg10 mi
2:30 AM72 °FClear.No wind88%29.92 "Hg10 mi
1:30 AM72 °FClear.7 mph88%29.92 "Hg10 mi
12:30 AM73 °FClear.5 mph89%29.92 "Hg10 mi
11:30 PM
Jul 30
73 °FClear.7 mph89%29.95 "Hg10 mi
10:30 PM75 °FClear.5 mph83%29.95 "Hg10 mi
10:00 PM75 °FPassing clouds.7 mph78%29.95 "HgN/A
9:30 PM77 °FPassing clouds.5 mph74%29.92 "HgN/A
9:00 PM77 °FPassing clouds.7 mph79%29.92 "HgN/A
8:30 PM79 °FScattered clouds.7 mph70%29.92 "HgN/A
7:30 PM82 °FPassing clouds.12 mph62%29.89 "HgN/A
6:30 PM84 °FPassing clouds.9 mph55%29.89 "HgN/A
5:30 PM86 °FPassing clouds.9 mph46%29.89 "HgN/A
5:00 PM88 °FPassing clouds.12 mph46%29.89 "HgN/A
4:30 PM88 °FPassing clouds.12 mph40%29.89 "HgN/A
4:00 PM90 °FPassing clouds.7 mph38%29.89 "HgN/A
3:30 PM90 °FPassing clouds.9 mph38%29.89 "HgN/A
2:30 PM88 °FScattered clouds.7 mph40%29.92 "HgN/A
1:30 PM86 °FBroken clouds.7 mph46%29.92 "HgN/A
12:30 PM82 °FBroken clouds.7 mph45%29.95 "HgN/A
Weather by CustomWeather, © 2014

See weather overviewHow to use our weather pages